CFG5TX EDDL-GCLP

Flight info

Callsign CFG5TX
Flight time 4h 12m
Altitude 30000
Route MODRU2T/23L MODRU Z717 MAS UM617 CIV/N0463F310 N872 MEDIL DCT KOVIN DCT NIDUV DCT KIHVI UN872 ERIGA UZ218 FUJTI DCT PEPET DCT BAKUP DCT BATAX DCT AIREZ DCT ODLIX DCT LUVUP/N0463F330 DCT BEXAL DCT SAMAR
Aircraft B753/M-SDE2E3FGHIJ3J4J7RWXY/LB1

Departure

Time 2026-05-05 12:47
Airport Düsseldorf Airport (EDDL)

Arrival

Time 2026-05-05 16:59
Airport Gran Canaria Airport (GCLP)
Time Latitude Longitude Altitude Speed Heading
2026-05-05 12:25 51.28079 6.76291 157 ft 0 kts 184°
2026-05-05 12:34 51.28093 6.76290 157 ft 13 kts 173°
2026-05-05 12:34 51.28115 6.76279 157 ft 13 kts 147°
2026-05-05 12:34 51.28129 6.76251 157 ft 13 kts 115°
2026-05-05 12:34 51.28131 6.76219 157 ft 7 kts 65°
2026-05-05 12:35 51.28120 6.76194 157 ft 13 kts 53°
2026-05-05 12:35 51.28112 6.76177 157 ft 0 kts 53°
2026-05-05 12:38 51.28113 6.76180 157 ft 1 kts 53°
2026-05-05 12:38 51.28125 6.76206 157 ft 6 kts 53°
2026-05-05 12:38 51.28160 6.76251 157 ft 5 kts 19°
2026-05-05 12:39 51.28190 6.76237 157 ft 6 kts 336°
2026-05-05 12:39 51.28235 6.76252 157 ft 8 kts 42°
2026-05-05 12:39 51.28276 6.76337 157 ft 10 kts 53°
2026-05-05 12:39 51.28312 6.76412 157 ft 7 kts 53°
2026-05-05 12:40 51.28336 6.76462 157 ft 6 kts 53°
2026-05-05 12:40 51.28370 6.76533 157 ft 11 kts 53°
2026-05-05 12:40 51.28436 6.76673 157 ft 20 kts 52°
2026-05-05 12:40 51.28538 6.76884 157 ft 26 kts 53°
2026-05-05 12:41 51.28641 6.77098 157 ft 22 kts 52°
2026-05-05 12:41 51.28727 6.77282 157 ft 19 kts 53°
2026-05-05 12:41 51.28801 6.77440 157 ft 18 kts 52°
2026-05-05 12:41 51.28877 6.77599 157 ft 17 kts 52°
2026-05-05 12:42 51.28943 6.77736 157 ft 14 kts 52°
2026-05-05 12:42 51.28995 6.77846 157 ft 12 kts 52°
2026-05-05 12:42 51.29050 6.77960 157 ft 12 kts 52°
2026-05-05 12:42 51.29103 6.78070 157 ft 13 kts 52°
2026-05-05 12:43 51.29161 6.78190 157 ft 14 kts 53°
2026-05-05 12:43 51.29214 6.78302 157 ft 11 kts 53°
2026-05-05 12:43 51.29262 6.78403 157 ft 12 kts 53°
2026-05-05 12:43 51.29315 6.78513 157 ft 11 kts 51°
2026-05-05 12:44 51.29361 6.78570 157 ft 7 kts 24°
2026-05-05 12:44 51.29395 6.78579 157 ft 3 kts
2026-05-05 12:44 51.29408 6.78578 157 ft 1 kts 357°
2026-05-05 12:44 51.29441 6.78576 157 ft 9 kts 357°
2026-05-05 12:45 51.29505 6.78569 157 ft 9 kts 354°
2026-05-05 12:45 51.29545 6.78538 157 ft 5 kts 277°
2026-05-05 12:45 51.29532 6.78500 157 ft 3 kts 232°
2026-05-05 12:45 51.29530 6.78497 157 ft 0 kts 232°
2026-05-05 12:46 51.29521 6.78477 157 ft 7 kts 232°
2026-05-05 12:46 51.29383 6.78187 157 ft 64 kts 233°
2026-05-05 12:47 51.28969 6.77317 157 ft 130 kts 233°
2026-05-05 12:47 51.28309 6.75933 241 ft 172 kts 235°
2026-05-05 12:47 51.27566 6.74425 912 ft 173 kts 233°
2026-05-05 12:47 51.26804 6.72933 1588 ft 174 kts 230°
2026-05-05 12:48 51.26037 6.71410 1965 ft 180 kts 231°
2026-05-05 12:48 51.25231 6.69821 2239 ft 188 kts 231°
2026-05-05 12:48 51.24375 6.68146 2494 ft 201 kts 231°
2026-05-05 12:48 51.23453 6.66351 2766 ft 218 kts 230°
2026-05-05 12:49 51.22459 6.64403 3168 ft 233 kts 231°
2026-05-05 12:49 51.21683 6.62071 3625 ft 248 kts 256°
2026-05-05 12:49 51.21716 6.59285 4115 ft 259 kts 285°
2026-05-05 12:49 51.22620 6.56787 4745 ft 264 kts 314°
2026-05-05 12:50 51.24155 6.55237 5433 ft 268 kts 339°
2026-05-05 12:50 51.25968 6.54475 6158 ft 270 kts 347°
2026-05-05 12:50 51.27819 6.53777 6818 ft 275 kts 344°
2026-05-05 12:50 51.29653 6.52809 7444 ft 279 kts 338°
2026-05-05 12:51 51.31431 6.51508 8101 ft 282 kts 332°
2026-05-05 12:51 51.33122 6.49953 8710 ft 285 kts 327°
2026-05-05 12:51 51.34780 6.48185 9361 ft 286 kts 323°
2026-05-05 12:51 51.36132 6.45853 9881 ft 289 kts 298°
2026-05-05 12:52 51.36731 6.42798 10371 ft 292 kts 273°
2026-05-05 12:52 51.36514 6.39549 10756 ft 299 kts 254°
2026-05-05 12:52 51.35792 6.36369 11068 ft 311 kts 245°
2026-05-05 12:52 51.34832 6.33188 11325 ft 325 kts 242°
2026-05-05 12:53 51.33627 6.30088 11556 ft 338 kts 231°
2026-05-05 12:53 51.31938 6.27371 11779 ft 351 kts 218°
2026-05-05 12:53 51.29867 6.25179 11981 ft 365 kts 208°
2026-05-05 12:53 51.27532 6.23455 12392 ft 371 kts 201°
2026-05-05 12:54 51.22618 6.20797 13467 ft 378 kts 197°
2026-05-05 12:54 51.20059 6.19521 14044 ft 382 kts 197°
2026-05-05 12:54 51.17548 6.18221 14636 ft 385 kts 198°
2026-05-05 12:55 51.15006 6.16836 15226 ft 387 kts 199°
2026-05-05 12:55 51.12460 6.15382 15802 ft 389 kts 200°
2026-05-05 12:55 51.09903 6.13884 16350 ft 391 kts 200°
2026-05-05 12:55 51.07596 6.12516 16829 ft 393 kts 200°
2026-05-05 12:56 51.04918 6.10856 17369 ft 396 kts 203°
2026-05-05 12:56 51.02525 6.08792 17850 ft 399 kts 213°
2026-05-05 12:56 51.00408 6.05915 18347 ft 402 kts 225°
2026-05-05 12:56 50.98678 6.02396 18852 ft 406 kts 235°
2026-05-05 12:57 50.97318 5.98457 19348 ft 409 kts 244°
2026-05-05 12:57 50.96308 5.94225 19829 ft 412 kts 251°
2026-05-05 12:57 50.95546 5.89815 20297 ft 415 kts 255°
2026-05-05 12:57 50.94906 5.85330 20751 ft 417 kts 256°
2026-05-05 12:58 50.94286 5.80831 21188 ft 419 kts 255°
2026-05-05 12:58 50.93631 5.76372 21622 ft 420 kts 254°
2026-05-05 12:58 50.92908 5.71876 22046 ft 422 kts 253°
2026-05-05 12:58 50.92126 5.67382 22458 ft 423 kts 252°
2026-05-05 12:59 50.91312 5.62888 22861 ft 425 kts 251°
2026-05-05 12:59 50.90481 5.58387 23256 ft 428 kts 251°
2026-05-05 12:59 50.89637 5.53851 23697 ft 430 kts 251°
2026-05-05 13:00 50.87936 5.44717 24536 ft 434 kts 251°
2026-05-05 13:00 50.87106 5.40156 24928 ft 436 kts 251°
2026-05-05 13:01 50.84553 5.26190 26095 ft 442 kts 251°
2026-05-05 13:01 50.83695 5.21496 26468 ft 444 kts 251°
2026-05-05 13:01 50.82839 5.16801 26844 ft 445 kts 251°
2026-05-05 13:01 50.81982 5.12089 27219 ft 447 kts 251°
2026-05-05 13:02 50.81122 5.07357 27591 ft 448 kts 251°
2026-05-05 13:02 50.80254 5.02625 27964 ft 449 kts 250°
2026-05-05 13:02 50.79362 4.97877 28309 ft 451 kts 250°
2026-05-05 13:02 50.78457 4.93116 28618 ft 454 kts 250°
2026-05-05 13:03 50.77561 4.88319 28986 ft 456 kts 251°
2026-05-05 13:03 50.76673 4.83507 29354 ft 457 kts 251°
2026-05-05 13:03 50.75800 4.78857 29647 ft 459 kts 249°
2026-05-05 13:03 50.74464 4.74393 29853 ft 455 kts 234°
2026-05-05 13:04 50.72383 4.70686 29961 ft 451 kts 219°
2026-05-05 13:04 50.69793 4.67909 29946 ft 450 kts 212°
2026-05-05 13:04 50.64867 4.61860 29908 ft 449 kts 221°
2026-05-05 13:05 50.60332 4.55092 29890 ft 448 kts 221°
2026-05-05 13:05 50.55721 4.48484 29877 ft 448 kts 218°
2026-05-05 13:06 50.50980 4.42186 29992 ft 452 kts 217°
2026-05-05 13:06 50.48553 4.39054 30216 ft 450 kts 217°
2026-05-05 13:06 50.46153 4.35945 30476 ft 445 kts 217°
2026-05-05 13:07 50.43790 4.32860 30688 ft 439 kts 217°
2026-05-05 13:07 50.41451 4.29781 30812 ft 437 kts 218°
2026-05-05 13:07 50.36807 4.23646 30881 ft 436 kts 217°
2026-05-05 13:08 50.32158 4.17561 30886 ft 434 kts 218°
2026-05-05 13:08 50.27525 4.11501 30888 ft 432 kts 217°
2026-05-05 13:09 50.22891 4.05509 30879 ft 432 kts 217°
2026-05-05 13:09 50.18306 3.99542 30878 ft 432 kts 217°
2026-05-05 13:10 50.13690 3.93523 30893 ft 433 kts 217°
2026-05-05 13:10 50.09044 3.87530 30893 ft 435 kts 217°
2026-05-05 13:11 50.04366 3.81519 30863 ft 438 kts 217°
2026-05-05 13:11 49.99637 3.75473 30859 ft 441 kts 217°
2026-05-05 13:12 49.94916 3.69364 30872 ft 442 kts 217°
2026-05-05 13:12 49.90150 3.63290 30865 ft 444 kts 217°
2026-05-05 13:13 49.85372 3.57227 30845 ft 444 kts 217°
2026-05-05 13:13 49.80607 3.51142 30848 ft 443 kts 217°
2026-05-05 13:14 49.75850 3.45070 30868 ft 444 kts 217°
2026-05-05 13:14 49.71061 3.39024 30850 ft 445 kts 216°
2026-05-05 13:15 49.66303 3.33021 30834 ft 444 kts 217°
2026-05-05 13:15 49.61528 3.27001 30847 ft 443 kts 217°
2026-05-05 13:16 49.56739 3.21002 30863 ft 443 kts 216°
2026-05-05 13:16 49.51943 3.15003 30848 ft 444 kts 216°
2026-05-05 13:17 49.47484 3.08369 30842 ft 448 kts 227°
2026-05-05 13:17 49.44095 3.00347 30852 ft 454 kts 238°
2026-05-05 13:18 49.41261 2.91664 30852 ft 455 kts 240°
2026-05-05 13:18 49.38350 2.83039 30848 ft 455 kts 237°
2026-05-05 13:19 49.35223 2.74592 30848 ft 455 kts 236°
2026-05-05 13:19 49.32090 2.66156 30847 ft 456 kts 237°
2026-05-05 13:20 49.29056 2.57607 30846 ft 457 kts 238°
2026-05-05 13:20 49.26071 2.49015 30850 ft 457 kts 238°
2026-05-05 13:21 49.23108 2.40644 30850 ft 457 kts 237°
2026-05-05 13:21 49.20060 2.32124 30849 ft 456 kts 237°
2026-05-05 13:22 49.16985 2.23644 30849 ft 456 kts 237°
2026-05-05 13:22 49.13854 2.15212 30844 ft 456 kts 236°
2026-05-05 13:23 49.10715 2.06802 30853 ft 456 kts 237°
2026-05-05 13:23 49.07806 1.98248 30856 ft 457 kts 240°
2026-05-05 13:24 49.05164 1.89406 30846 ft 458 kts 242°
2026-05-05 13:24 49.02594 1.80511 30841 ft 459 kts 242°
2026-05-05 13:25 48.99968 1.71708 30832 ft 459 kts 242°
2026-05-05 13:25 48.97261 1.62887 30830 ft 459 kts 242°
2026-05-05 13:26 48.94571 1.54077 30853 ft 459 kts 242°
2026-05-05 13:26 48.91892 1.45273 30857 ft 458 kts 242°
2026-05-05 13:27 48.89209 1.36475 30865 ft 458 kts 242°
2026-05-05 13:27 48.86517 1.27709 30869 ft 458 kts 242°
2026-05-05 13:28 48.83784 1.18969 30847 ft 458 kts 242°
2026-05-05 13:28 48.81086 1.10266 30855 ft 458 kts 242°
2026-05-05 13:29 48.78378 1.01515 30857 ft 458 kts 242°
2026-05-05 13:29 48.75650 0.92810 30859 ft 457 kts 241°
2026-05-05 13:30 48.72707 0.84324 30865 ft 452 kts 237°
2026-05-05 13:30 48.69477 0.76281 30863 ft 448 kts 235°
2026-05-05 13:31 48.66127 0.68341 30858 ft 446 kts 235°
2026-05-05 13:31 48.62844 0.60418 30863 ft 443 kts 236°
2026-05-05 13:32 48.59611 0.52528 30864 ft 441 kts 236°
2026-05-05 13:32 48.56428 0.44657 30871 ft 437 kts 237°
2026-05-05 13:33 48.53781 0.38172 30874 ft 434 kts 237°
2026-05-05 13:33 48.50601 0.30452 30873 ft 432 kts 237°
2026-05-05 13:34 48.47423 0.22780 30872 ft 431 kts 237°
2026-05-05 13:34 48.44238 0.15139 30874 ft 430 kts 237°
2026-05-05 13:35 48.41070 0.07490 30875 ft 430 kts 237°
2026-05-05 13:35 48.37916 -0.00086 30875 ft 430 kts 237°
2026-05-05 13:36 48.34624 -0.07581 30875 ft 429 kts 234°
2026-05-05 13:36 48.31098 -0.14823 30875 ft 429 kts 232°
2026-05-05 13:37 48.27475 -0.21948 30875 ft 429 kts 232°
2026-05-05 13:37 48.23829 -0.29094 30875 ft 432 kts 232°
2026-05-05 13:38 48.20182 -0.36230 30875 ft 433 kts 232°
2026-05-05 13:38 48.16505 -0.43403 30875 ft 433 kts 232°
2026-05-05 13:39 48.12831 -0.50562 30875 ft 433 kts 232°
2026-05-05 13:39 48.09159 -0.57706 30875 ft 433 kts 232°
2026-05-05 13:40 48.05496 -0.64796 30875 ft 433 kts 231°
2026-05-05 13:40 48.01799 -0.71933 30875 ft 433 kts 231°
2026-05-05 13:41 47.98124 -0.79076 30875 ft 433 kts 231°
2026-05-05 13:41 47.94451 -0.86207 30875 ft 433 kts 231°
2026-05-05 13:42 47.90780 -0.93283 30875 ft 433 kts 231°
2026-05-05 13:42 47.87059 -1.00356 30875 ft 433 kts 230°
2026-05-05 13:43 47.83335 -1.07423 30875 ft 434 kts 230°
2026-05-05 13:43 47.79606 -1.14494 30875 ft 434 kts 231°
2026-05-05 13:44 47.75902 -1.21583 30875 ft 434 kts 230°
2026-05-05 13:44 47.72183 -1.28637 30875 ft 434 kts 230°
2026-05-05 13:45 47.68455 -1.35693 30875 ft 434 kts 230°
2026-05-05 13:45 47.64724 -1.42752 30875 ft 434 kts 230°
2026-05-05 13:46 47.60988 -1.49722 30875 ft 434 kts 229°
2026-05-05 13:46 47.57092 -1.56576 30875 ft 434 kts 227°
2026-05-05 13:47 47.53043 -1.63205 30875 ft 434 kts 226°
2026-05-05 13:47 47.48976 -1.69799 30875 ft 434 kts 226°
2026-05-05 13:48 47.44920 -1.76416 30875 ft 434 kts 226°
2026-05-05 13:48 47.40863 -1.83022 30875 ft 434 kts 226°
2026-05-05 13:49 47.36802 -1.89610 30875 ft 434 kts 225°
2026-05-05 13:49 47.32327 -1.95534 30875 ft 432 kts 215°
2026-05-05 13:50 47.27247 -2.00258 30876 ft 431 kts 209°
2026-05-05 13:50 47.22012 -2.04498 30875 ft 431 kts 208°
2026-05-05 13:51 47.16802 -2.08898 30875 ft 432 kts 210°
2026-05-05 13:51 47.11655 -2.13467 30875 ft 432 kts 211°
2026-05-05 13:52 47.06538 -2.18077 30875 ft 432 kts 211°
2026-05-05 13:52 47.01439 -2.22636 30875 ft 432 kts 210°
2026-05-05 13:53 46.96285 -2.27159 30875 ft 432 kts 210°
2026-05-05 13:53 46.91139 -2.31696 30875 ft 432 kts 210°
2026-05-05 13:54 46.85988 -2.36230 30875 ft 432 kts 210°
2026-05-05 13:54 46.80839 -2.40751 30875 ft 432 kts 210°
2026-05-05 13:55 46.75686 -2.45266 30875 ft 432 kts 210°
2026-05-05 13:55 46.70565 -2.49742 30875 ft 432 kts 210°
2026-05-05 13:56 46.65414 -2.54236 30875 ft 432 kts 210°
2026-05-05 13:56 46.60258 -2.58723 30875 ft 432 kts 210°
2026-05-05 13:57 46.55097 -2.63205 30875 ft 432 kts 210°
2026-05-05 13:57 46.50893 -2.66847 30875 ft 432 kts 210°
2026-05-05 13:58 46.46715 -2.70463 30875 ft 432 kts 210°
2026-05-05 13:58 46.41553 -2.74918 30875 ft 432 kts 210°
2026-05-05 13:59 46.33807 -2.81587 30875 ft 432 kts 210°
2026-05-05 14:00 46.26931 -2.87491 30875 ft 432 kts 210°
2026-05-05 14:00 46.20889 -2.92658 30875 ft 432 kts 210°
2026-05-05 14:01 46.15713 -2.97077 30875 ft 432 kts 210°
2026-05-05 14:01 46.10568 -3.01464 30875 ft 432 kts 210°
2026-05-05 14:02 46.05388 -3.05860 30875 ft 432 kts 210°
2026-05-05 14:02 46.00212 -3.10250 30875 ft 432 kts 210°
2026-05-05 14:03 45.95027 -3.14644 30875 ft 432 kts 210°
2026-05-05 14:03 45.89850 -3.19015 30875 ft 432 kts 210°
2026-05-05 14:04 45.84700 -3.23351 30875 ft 432 kts 210°
2026-05-05 14:04 45.79517 -3.27708 30875 ft 432 kts 210°
2026-05-05 14:05 45.74324 -3.32067 30875 ft 432 kts 210°
2026-05-05 14:05 45.69165 -3.36391 30875 ft 432 kts 210°
2026-05-05 14:06 45.63971 -3.40739 30875 ft 432 kts 210°
2026-05-05 14:06 45.58784 -3.45075 30875 ft 432 kts 210°
2026-05-05 14:07 45.53595 -3.49408 30875 ft 432 kts 210°
2026-05-05 14:07 45.48407 -3.53735 30875 ft 432 kts 210°
2026-05-05 14:08 45.43249 -3.58031 30875 ft 432 kts 210°
2026-05-05 14:08 45.38063 -3.62345 30875 ft 432 kts 210°
2026-05-05 14:09 45.32856 -3.66651 30875 ft 432 kts 209°
2026-05-05 14:09 45.27648 -3.70916 30875 ft 432 kts 210°
2026-05-05 14:10 45.22480 -3.75176 30875 ft 432 kts 209°
2026-05-05 14:10 45.17274 -3.79443 30875 ft 432 kts 209°
2026-05-05 14:11 45.12065 -3.83687 30875 ft 432 kts 209°
2026-05-05 14:11 45.06865 -3.87971 30875 ft 432 kts 210°
2026-05-05 14:12 45.01716 -3.92373 30875 ft 432 kts 210°
2026-05-05 14:12 44.96554 -3.96789 30874 ft 434 kts 208°
2026-05-05 14:13 44.91377 -4.01196 30875 ft 438 kts 208°
2026-05-05 14:13 44.86133 -4.05644 30875 ft 440 kts 208°
2026-05-05 14:14 44.80873 -4.10107 30874 ft 441 kts 208°
2026-05-05 14:14 44.75640 -4.14558 30875 ft 442 kts 208°
2026-05-05 14:15 44.70365 -4.19050 30875 ft 443 kts 208°
2026-05-05 14:15 44.65074 -4.23553 30875 ft 443 kts 208°
2026-05-05 14:16 44.59785 -4.28030 30875 ft 443 kts 208°
2026-05-05 14:16 44.54520 -4.32450 30875 ft 444 kts 208°
2026-05-05 14:17 44.49213 -4.36904 30875 ft 444 kts 208°
2026-05-05 14:17 44.43911 -4.41338 30875 ft 444 kts 208°
2026-05-05 14:18 44.38613 -4.45793 30875 ft 444 kts 208°
2026-05-05 14:18 44.33361 -4.50223 30875 ft 444 kts 208°
2026-05-05 14:19 44.28065 -4.54689 30875 ft 444 kts 208°
2026-05-05 14:19 44.22773 -4.59148 30875 ft 444 kts 208°
2026-05-05 14:20 44.18381 -4.62844 30874 ft 444 kts 208°
2026-05-05 14:20 44.13090 -4.67291 30874 ft 444 kts 208°
2026-05-05 14:21 44.07801 -4.71730 30874 ft 444 kts 208°
2026-05-05 14:21 44.02533 -4.76145 30874 ft 444 kts 208°
2026-05-05 14:22 43.97238 -4.80571 30873 ft 443 kts 208°
2026-05-05 14:22 43.91949 -4.84975 30871 ft 443 kts 208°
2026-05-05 14:23 43.86691 -4.89332 30870 ft 442 kts 208°
2026-05-05 14:23 43.81422 -4.93714 30869 ft 441 kts 208°
2026-05-05 14:24 43.76149 -4.98079 30869 ft 441 kts 208°
2026-05-05 14:24 43.70888 -5.02430 30869 ft 441 kts 209°
2026-05-05 14:25 43.65627 -5.06777 30869 ft 440 kts 208°
2026-05-05 14:25 43.60402 -5.11078 30868 ft 440 kts 208°
2026-05-05 14:26 43.55108 -5.15444 30867 ft 440 kts 208°
2026-05-05 14:26 43.49877 -5.19722 30868 ft 440 kts 208°
2026-05-05 14:27 43.44601 -5.24017 30869 ft 440 kts 208°
2026-05-05 14:27 43.39339 -5.28325 30867 ft 440 kts 209°
2026-05-05 14:28 43.34120 -5.32747 30865 ft 440 kts 211°
2026-05-05 14:28 43.29077 -5.37433 30865 ft 440 kts 212°
2026-05-05 14:29 43.24037 -5.42200 30867 ft 439 kts 212°
2026-05-05 14:29 43.18965 -5.46896 30864 ft 439 kts 212°
2026-05-05 14:30 43.13908 -5.51530 30862 ft 439 kts 212°
2026-05-05 14:30 43.08837 -5.56199 30860 ft 438 kts 212°
2026-05-05 14:31 43.03765 -5.60824 30856 ft 437 kts 212°
2026-05-05 14:31 42.98699 -5.65406 30855 ft 435 kts 212°
2026-05-05 14:32 42.93687 -5.69948 30855 ft 435 kts 212°
2026-05-05 14:32 42.88633 -5.74532 30855 ft 435 kts 213°
2026-05-05 14:33 42.83596 -5.79112 30849 ft 435 kts 213°
2026-05-05 14:33 42.78573 -5.83685 30848 ft 434 kts 213°
2026-05-05 14:34 42.73541 -5.88220 30850 ft 433 kts 212°
2026-05-05 14:34 42.68531 -5.92711 30849 ft 434 kts 213°
2026-05-05 14:35 42.63507 -5.97260 30848 ft 434 kts 213°
2026-05-05 14:35 42.58462 -6.01753 30848 ft 433 kts 212°
2026-05-05 14:36 42.53422 -6.06262 30848 ft 433 kts 212°
2026-05-05 14:36 42.48428 -6.10745 30848 ft 433 kts 212°
2026-05-05 14:37 42.43383 -6.15249 30849 ft 434 kts 212°
2026-05-05 14:37 42.38345 -6.19751 30849 ft 434 kts 212°
2026-05-05 14:38 42.33288 -6.24248 30847 ft 435 kts 212°
2026-05-05 14:38 42.28218 -6.28739 30846 ft 435 kts 212°
2026-05-05 14:39 42.23171 -6.33174 30845 ft 435 kts 211°
2026-05-05 14:39 42.18083 -6.37635 30846 ft 436 kts 211°
2026-05-05 14:40 42.12987 -6.42122 30846 ft 437 kts 211°
2026-05-05 14:40 42.07895 -6.46625 30845 ft 438 kts 211°
2026-05-05 14:41 42.02798 -6.51149 30845 ft 439 kts 211°
2026-05-05 14:41 41.97661 -6.55621 30845 ft 440 kts 210°
2026-05-05 14:42 41.92552 -6.60079 30845 ft 441 kts 210°
2026-05-05 14:42 41.87410 -6.64563 30845 ft 441 kts 210°
2026-05-05 14:43 41.82235 -6.69072 30845 ft 442 kts 210°
2026-05-05 14:43 41.77076 -6.73556 30845 ft 442 kts 210°
2026-05-05 14:44 41.71919 -6.78043 30845 ft 442 kts 210°
2026-05-05 14:44 41.66793 -6.82492 30845 ft 442 kts 211°
2026-05-05 14:45 41.61637 -6.86960 30845 ft 441 kts 210°
2026-05-05 14:45 41.56488 -6.91404 30845 ft 440 kts 210°
2026-05-05 14:46 41.51344 -6.95860 30845 ft 440 kts 211°
2026-05-05 14:46 41.46232 -7.00250 30845 ft 439 kts 211°
2026-05-05 14:47 41.41101 -7.04662 30845 ft 438 kts 211°
2026-05-05 14:47 41.35972 -7.09075 30845 ft 438 kts 211°
2026-05-05 14:48 41.30852 -7.13467 30845 ft 438 kts 211°
2026-05-05 14:48 41.25719 -7.17839 30845 ft 438 kts 211°
2026-05-05 14:49 41.20588 -7.22191 30845 ft 437 kts 211°
2026-05-05 14:49 41.15480 -7.26493 30845 ft 437 kts 211°
2026-05-05 14:50 41.10353 -7.30823 30845 ft 436 kts 212°
2026-05-05 14:50 41.05254 -7.35159 30845 ft 435 kts 212°
2026-05-05 14:51 41.00155 -7.39493 30845 ft 435 kts 211°
2026-05-05 14:51 40.95036 -7.43809 30844 ft 436 kts 210°
2026-05-05 14:52 40.89902 -7.48139 30845 ft 440 kts 210°
2026-05-05 14:52 40.84707 -7.52517 30846 ft 444 kts 210°
2026-05-05 14:53 40.79509 -7.56859 30845 ft 446 kts 210°
2026-05-05 14:53 40.74251 -7.61253 30844 ft 448 kts 209°
2026-05-05 14:54 40.68939 -7.65652 30846 ft 453 kts 208°
2026-05-05 14:54 40.63562 -7.70102 30846 ft 458 kts 209°
2026-05-05 14:55 40.58191 -7.74590 30845 ft 461 kts 209°
2026-05-05 14:55 40.52739 -7.79132 30846 ft 465 kts 209°
2026-05-05 14:56 40.47245 -7.83702 30846 ft 468 kts 209°
2026-05-05 14:56 40.41710 -7.88266 30848 ft 470 kts 209°
2026-05-05 14:57 40.36212 -7.92825 30845 ft 465 kts 209°
2026-05-05 14:57 40.30745 -7.97314 30843 ft 462 kts 209°
2026-05-05 14:58 40.25330 -8.01804 30845 ft 465 kts 209°
2026-05-05 14:58 40.19824 -8.06302 30846 ft 466 kts 209°
2026-05-05 14:59 40.14337 -8.10821 30845 ft 464 kts 209°
2026-05-05 14:59 40.08870 -8.15277 30845 ft 461 kts 209°
2026-05-05 15:00 40.04355 -8.18994 30845 ft 459 kts 209°
2026-05-05 15:00 39.98067 -8.24096 30845 ft 457 kts 209°
2026-05-05 15:01 39.92699 -8.28519 30845 ft 456 kts 210°
2026-05-05 15:01 39.87429 -8.33125 30846 ft 456 kts 212°
2026-05-05 15:02 39.82229 -8.37815 30845 ft 454 kts 212°
2026-05-05 15:02 39.77016 -8.42458 30845 ft 453 kts 212°
2026-05-05 15:03 39.71814 -8.47058 30845 ft 452 kts 212°
2026-05-05 15:03 39.66638 -8.51618 30845 ft 451 kts 212°
2026-05-05 15:04 39.61431 -8.56194 30845 ft 451 kts 211°
2026-05-05 15:04 39.56222 -8.60748 30845 ft 451 kts 211°
2026-05-05 15:05 39.48418 -8.67557 30845 ft 451 kts 211°
2026-05-05 15:06 39.43214 -8.72095 30845 ft 451 kts 211°
2026-05-05 15:06 39.38882 -8.75857 30845 ft 451 kts 211°
2026-05-05 15:07 39.32821 -8.81100 30845 ft 451 kts 210°
2026-05-05 15:07 39.27579 -8.85615 30845 ft 453 kts 210°
2026-05-05 15:08 39.23218 -8.89395 30845 ft 455 kts 210°
2026-05-05 15:08 39.17931 -8.93928 30845 ft 458 kts 209°
2026-05-05 15:09 39.12596 -8.98492 30846 ft 462 kts 209°
2026-05-05 15:09 39.07238 -9.03117 30846 ft 464 kts 210°
2026-05-05 15:10 39.01902 -9.07692 30845 ft 464 kts 210°
2026-05-05 15:10 38.96520 -9.12305 30845 ft 464 kts 210°
2026-05-05 15:11 38.91132 -9.16912 30845 ft 464 kts 209°
2026-05-05 15:11 38.85721 -9.21540 30847 ft 471 kts 210°
2026-05-05 15:12 38.80253 -9.26201 30846 ft 477 kts 210°
2026-05-05 15:12 38.74704 -9.30934 30846 ft 479 kts 210°
2026-05-05 15:13 38.69135 -9.35655 30845 ft 480 kts 210°
2026-05-05 15:13 38.63564 -9.40381 30845 ft 480 kts 209°
2026-05-05 15:14 38.58014 -9.45098 30978 ft 477 kts 219°
2026-05-05 15:14 38.52530 -9.49804 31097 ft 474 kts 219°
2026-05-05 15:15 38.47032 -9.54431 31102 ft 472 kts 218°
2026-05-05 15:15 38.41599 -9.58964 31100 ft 468 kts 219°
2026-05-05 15:16 38.36180 -9.63553 31102 ft 467 kts 219°
2026-05-05 15:16 38.30739 -9.68092 31103 ft 468 kts 218°
2026-05-05 15:17 38.25302 -9.72647 31102 ft 467 kts 219°
2026-05-05 15:17 38.19860 -9.77186 31101 ft 467 kts 219°
2026-05-05 15:18 38.14463 -9.81684 31102 ft 466 kts 219°
2026-05-05 15:18 38.09028 -9.86200 31101 ft 466 kts 219°
2026-05-05 15:19 38.03598 -9.90718 31102 ft 466 kts 218°
2026-05-05 15:19 37.98159 -9.95227 31102 ft 467 kts 218°
2026-05-05 15:20 37.92709 -9.99732 31101 ft 467 kts 218°
2026-05-05 15:20 37.87307 -10.04192 31101 ft 466 kts 218°
2026-05-05 15:21 37.81844 -10.08702 31289 ft 473 kts 218°
2026-05-05 15:21 37.79074 -10.10976 31569 ft 476 kts 218°
2026-05-05 15:21 37.76279 -10.13267 31973 ft 475 kts 218°
2026-05-05 15:21 37.73512 -10.15543 32492 ft 473 kts 218°
2026-05-05 15:22 37.70775 -10.17747 32961 ft 473 kts 218°
2026-05-05 15:22 37.67941 -10.19965 33072 ft 481 kts 217°
2026-05-05 15:22 37.65059 -10.22147 33109 ft 484 kts 216°
2026-05-05 15:23 37.59229 -10.26438 33103 ft 484 kts 215°
2026-05-05 15:23 37.53456 -10.30682 33101 ft 482 kts 216°
2026-05-05 15:24 37.47674 -10.34982 33101 ft 482 kts 216°
2026-05-05 15:24 37.41900 -10.39285 33098 ft 482 kts 216°
2026-05-05 15:25 37.36101 -10.43587 33098 ft 484 kts 216°
2026-05-05 15:25 37.30284 -10.47893 33098 ft 486 kts 216°
2026-05-05 15:26 37.24451 -10.52204 33096 ft 486 kts 216°
2026-05-05 15:26 37.18664 -10.56480 33092 ft 484 kts 216°
2026-05-05 15:27 37.12838 -10.60773 33097 ft 485 kts 216°
2026-05-05 15:27 37.07005 -10.65066 33097 ft 486 kts 216°
2026-05-05 15:28 37.01171 -10.69358 33092 ft 485 kts 216°
2026-05-05 15:28 36.95398 -10.73600 33092 ft 484 kts 216°
2026-05-05 15:29 36.89595 -10.77856 33088 ft 483 kts 215°
2026-05-05 15:29 36.83797 -10.82054 33078 ft 479 kts 216°
2026-05-05 15:30 36.78062 -10.86246 33079 ft 476 kts 216°
2026-05-05 15:30 36.72333 -10.90435 33080 ft 477 kts 215°
2026-05-05 15:31 36.66592 -10.94556 33073 ft 475 kts 215°
2026-05-05 15:31 36.60894 -10.98691 33072 ft 473 kts 216°
2026-05-05 15:32 36.55211 -11.02814 33073 ft 473 kts 215°
2026-05-05 15:32 36.49514 -11.06925 33072 ft 473 kts 215°
2026-05-05 15:33 36.43861 -11.11001 33072 ft 473 kts 215°
2026-05-05 15:33 36.38170 -11.15096 33072 ft 473 kts 215°
2026-05-05 15:34 36.32467 -11.19193 33071 ft 472 kts 215°
2026-05-05 15:34 36.26811 -11.23248 33080 ft 472 kts 211°
2026-05-05 15:35 36.21188 -11.27267 33070 ft 458 kts 211°
2026-05-05 15:35 36.15683 -11.31118 33068 ft 451 kts 209°
2026-05-05 15:36 36.10122 -11.34544 33069 ft 448 kts 207°
2026-05-05 15:36 36.04529 -11.37919 33069 ft 446 kts 207°
2026-05-05 15:37 35.98983 -11.41368 33068 ft 446 kts 208°
2026-05-05 15:37 35.93458 -11.44870 33068 ft 445 kts 208°
2026-05-05 15:38 35.87936 -11.48340 33069 ft 445 kts 208°
2026-05-05 15:38 35.82451 -11.51800 33069 ft 445 kts 208°
2026-05-05 15:39 35.76913 -11.55261 33069 ft 445 kts 208°
2026-05-05 15:39 35.71391 -11.58734 33069 ft 445 kts 208°
2026-05-05 15:40 35.65860 -11.62180 33068 ft 445 kts 207°
2026-05-05 15:40 35.60336 -11.65633 33068 ft 445 kts 207°
2026-05-05 15:41 35.54849 -11.69062 33068 ft 445 kts 207°
2026-05-05 15:41 35.49323 -11.72506 33068 ft 445 kts 208°
2026-05-05 15:42 35.43797 -11.75944 33068 ft 445 kts 207°
2026-05-05 15:42 35.38263 -11.79375 33068 ft 445 kts 207°
2026-05-05 15:43 35.32728 -11.82793 33068 ft 445 kts 207°
2026-05-05 15:43 35.27199 -11.86217 33068 ft 445 kts 207°
2026-05-05 15:44 35.21675 -11.89650 33068 ft 445 kts 207°
2026-05-05 15:44 35.16180 -11.93060 33068 ft 445 kts 207°
2026-05-05 15:45 35.10632 -11.96490 33061 ft 451 kts 213°
2026-05-05 15:45 35.04922 -12.00011 33069 ft 466 kts 212°
2026-05-05 15:46 34.99093 -12.03566 33244 ft 468 kts 212°
2026-05-05 15:46 34.96178 -12.05359 33469 ft 469 kts 212°
2026-05-05 15:46 34.93252 -12.07157 33715 ft 472 kts 212°
2026-05-05 15:46 34.90303 -12.08952 33965 ft 475 kts 212°
2026-05-05 15:47 34.87337 -12.10768 34216 ft 479 kts 212°
2026-05-05 15:47 34.85357 -12.11974 34382 ft 481 kts 212°
2026-05-05 15:47 34.81385 -12.14398 34714 ft 480 kts 212°
2026-05-05 15:47 34.78402 -12.16223 34963 ft 479 kts 212°
2026-05-05 15:48 34.75418 -12.18038 35213 ft 479 kts 212°
2026-05-05 15:48 34.72439 -12.19859 35462 ft 480 kts 212°
2026-05-05 15:48 34.69435 -12.21681 35713 ft 482 kts 212°
2026-05-05 15:48 34.66430 -12.23512 35963 ft 484 kts 212°
2026-05-05 15:49 34.63438 -12.25322 36211 ft 487 kts 212°
2026-05-05 15:49 34.60364 -12.27190 36465 ft 489 kts 212°
2026-05-05 15:49 34.57309 -12.29035 36715 ft 492 kts 212°
2026-05-05 15:49 34.54280 -12.30874 36905 ft 495 kts 212°
2026-05-05 15:50 34.51181 -12.32741 37017 ft 496 kts 212°
2026-05-05 15:50 34.45558 -12.36153 37071 ft 492 kts 212°
2026-05-05 15:51 34.39445 -12.39837 37064 ft 488 kts 212°
2026-05-05 15:51 34.33381 -12.43502 37066 ft 486 kts 212°
2026-05-05 15:52 34.27369 -12.47119 37067 ft 486 kts 212°
2026-05-05 15:52 34.21308 -12.50759 37067 ft 486 kts 212°
2026-05-05 15:53 34.15258 -12.54387 37067 ft 484 kts 212°
2026-05-05 15:53 34.09256 -12.57989 37066 ft 479 kts 212°
2026-05-05 15:54 34.04320 -12.60944 37064 ft 474 kts 212°
2026-05-05 15:54 33.98426 -12.64473 37065 ft 471 kts 212°
2026-05-05 15:55 33.92547 -12.67980 37069 ft 471 kts 212°
2026-05-05 15:55 33.86684 -12.71473 37067 ft 468 kts 212°
2026-05-05 15:56 33.80897 -12.74916 37066 ft 466 kts 212°
2026-05-05 15:56 33.75065 -12.78373 37060 ft 468 kts 212°
2026-05-05 15:57 33.69178 -12.81870 37027 ft 474 kts 213°
2026-05-05 15:57 33.63236 -12.85359 37024 ft 480 kts 212°
2026-05-05 15:58 33.57231 -12.88915 37023 ft 483 kts 212°
2026-05-05 15:58 33.51174 -12.92476 37023 ft 484 kts 213°
2026-05-05 15:59 33.45108 -12.96045 37023 ft 486 kts 212°
2026-05-05 15:59 33.39070 -12.99602 37022 ft 486 kts 212°
2026-05-05 16:00 33.32980 -13.03166 37022 ft 486 kts 212°
2026-05-05 16:00 33.26905 -13.06736 37022 ft 486 kts 212°
2026-05-05 16:01 33.20809 -13.10299 37022 ft 487 kts 212°
2026-05-05 16:01 33.14809 -13.13783 37047 ft 471 kts 212°
2026-05-05 16:01 33.11909 -13.15442 37031 ft 455 kts 212°
2026-05-05 16:02 33.09092 -13.17045 37037 ft 439 kts 212°
2026-05-05 16:02 33.06377 -13.18605 37042 ft 426 kts 212°
2026-05-05 16:02 33.03744 -13.20132 37045 ft 417 kts 213°
2026-05-05 16:03 32.98591 -13.23141 37049 ft 415 kts 213°
2026-05-05 16:03 32.93375 -13.26211 37057 ft 418 kts 213°
2026-05-05 16:04 32.88126 -13.29256 37063 ft 421 kts 212°
2026-05-05 16:04 32.82864 -13.32315 37055 ft 423 kts 213°
2026-05-05 16:05 32.77549 -13.35385 37055 ft 424 kts 212°
2026-05-05 16:05 32.72245 -13.38438 37065 ft 426 kts 212°
2026-05-05 16:06 32.66895 -13.41523 37067 ft 428 kts 212°
2026-05-05 16:06 32.61532 -13.44613 37067 ft 429 kts 212°
2026-05-05 16:07 32.56192 -13.47684 37069 ft 429 kts 212°
2026-05-05 16:07 32.50805 -13.50779 37070 ft 430 kts 212°
2026-05-05 16:08 32.45406 -13.53878 37071 ft 430 kts 212°
2026-05-05 16:08 32.40051 -13.56947 37072 ft 430 kts 212°
2026-05-05 16:09 32.34652 -13.60037 37073 ft 431 kts 212°
2026-05-05 16:09 32.29234 -13.63130 37076 ft 432 kts 212°
2026-05-05 16:10 32.23835 -13.66216 37077 ft 432 kts 212°
2026-05-05 16:10 32.18429 -13.69301 37082 ft 434 kts 212°
2026-05-05 16:11 32.12977 -13.72425 37096 ft 435 kts 212°
2026-05-05 16:12 32.01955 -13.78745 37116 ft 444 kts 211°
2026-05-05 16:13 31.87961 -13.86660 37121 ft 448 kts 211°
2026-05-05 16:13 31.82336 -13.89845 37122 ft 449 kts 211°
2026-05-05 16:14 31.71072 -13.96232 37125 ft 450 kts 211°
2026-05-05 16:15 31.59799 -14.02584 37129 ft 451 kts 211°
2026-05-05 16:16 31.48438 -14.08954 37131 ft 452 kts 210°
2026-05-05 16:17 31.39946 -14.13698 37134 ft 453 kts 210°
2026-05-05 16:18 31.31396 -14.18471 37136 ft 453 kts 210°
2026-05-05 16:19 31.22831 -14.23255 37163 ft 457 kts 210°
2026-05-05 16:19 31.14198 -14.28065 37170 ft 462 kts 209°
2026-05-05 16:20 31.02551 -14.34519 37170 ft 464 kts 209°
2026-05-05 16:22 30.87908 -14.42394 37162 ft 468 kts 205°
2026-05-05 16:23 30.75341 -14.47003 37164 ft 475 kts 200°
2026-05-05 16:23 30.65919 -14.50312 37170 ft 471 kts 201°
2026-05-05 16:24 30.59684 -14.52625 37170 ft 469 kts 201°
2026-05-05 16:25 30.50359 -14.56072 37170 ft 469 kts 201°
2026-05-05 16:25 30.41036 -14.59506 37170 ft 468 kts 201°
2026-05-05 16:26 30.28593 -14.64077 37170 ft 468 kts 201°
2026-05-05 16:27 30.22406 -14.66345 37170 ft 468 kts 201°
2026-05-05 16:27 30.16187 -14.68621 37170 ft 468 kts 201°
2026-05-05 16:28 30.09971 -14.70878 37170 ft 468 kts 201°
2026-05-05 16:28 30.03749 -14.73140 37170 ft 468 kts 201°
2026-05-05 16:29 29.97527 -14.75398 37170 ft 468 kts 201°
2026-05-05 16:29 29.91307 -14.77649 37169 ft 469 kts 201°
2026-05-05 16:30 29.85099 -14.79898 37170 ft 469 kts 201°
2026-05-05 16:30 29.78856 -14.82152 37170 ft 469 kts 201°
2026-05-05 16:31 29.72629 -14.84399 37142 ft 468 kts 204°
2026-05-05 16:31 29.66529 -14.86529 37069 ft 450 kts 204°
2026-05-05 16:32 29.60654 -14.88577 37009 ft 435 kts 197°
2026-05-05 16:32 29.54810 -14.90724 36994 ft 447 kts 198°
2026-05-05 16:33 29.48961 -14.92825 37042 ft 433 kts 205°
2026-05-05 16:33 29.46114 -14.93814 37036 ft 422 kts 205°
2026-05-05 16:33 29.43301 -14.94795 37036 ft 413 kts 203°
2026-05-05 16:34 29.37897 -14.96668 37040 ft 404 kts 202°
2026-05-05 16:34 29.35237 -14.97579 36954 ft 391 kts 204°
2026-05-05 16:34 29.32676 -14.98455 36692 ft 378 kts 206°
2026-05-05 16:35 29.30180 -14.99320 36289 ft 370 kts 206°
2026-05-05 16:35 29.27732 -15.00184 35822 ft 367 kts 199°
2026-05-05 16:35 29.25326 -15.01046 35338 ft 368 kts 197°
2026-05-05 16:35 29.22880 -15.01965 34841 ft 372 kts 197°
2026-05-05 16:36 29.20392 -15.02903 34345 ft 381 kts 197°
2026-05-05 16:36 29.17837 -15.03863 33841 ft 390 kts 198°
2026-05-05 16:36 29.15227 -15.04823 33326 ft 397 kts 199°
2026-05-05 16:36 29.12579 -15.05784 32803 ft 400 kts 199°
2026-05-05 16:37 29.09909 -15.06739 32266 ft 404 kts 198°
2026-05-05 16:37 29.07213 -15.07699 31718 ft 407 kts 197°
2026-05-05 16:37 29.04495 -15.08671 31168 ft 410 kts 197°
2026-05-05 16:37 29.01757 -15.09653 30619 ft 413 kts 197°
2026-05-05 16:38 28.99042 -15.10622 30079 ft 415 kts 198°
2026-05-05 16:38 28.96270 -15.11589 29524 ft 419 kts 198°
2026-05-05 16:38 28.93455 -15.12575 28958 ft 429 kts 198°
2026-05-05 16:38 28.90558 -15.13606 28380 ft 439 kts 198°
2026-05-05 16:39 28.87638 -15.14641 27787 ft 441 kts 198°
2026-05-05 16:39 28.84710 -15.15672 27188 ft 439 kts 197°
2026-05-05 16:39 28.81796 -15.16694 26586 ft 434 kts 198°
2026-05-05 16:39 28.78934 -15.17704 25989 ft 426 kts 198°
2026-05-05 16:40 28.77077 -15.18362 25602 ft 418 kts 198°
2026-05-05 16:40 28.73460 -15.19650 24842 ft 404 kts 198°
2026-05-05 16:40 28.70804 -15.20607 24283 ft 396 kts 198°
2026-05-05 16:40 28.69032 -15.21247 23913 ft 393 kts 198°
2026-05-05 16:41 28.66433 -15.22182 23383 ft 392 kts 198°
2026-05-05 16:41 28.63856 -15.23106 22863 ft 393 kts 199°
2026-05-05 16:41 28.61220 -15.24041 22330 ft 400 kts 198°
2026-05-05 16:41 28.58520 -15.24997 21783 ft 406 kts 198°
2026-05-05 16:42 28.55822 -15.25952 21234 ft 406 kts 198°
2026-05-05 16:42 28.53127 -15.26902 20682 ft 403 kts 198°
2026-05-05 16:42 28.50506 -15.27820 20136 ft 395 kts 198°
2026-05-05 16:42 28.47898 -15.28733 19585 ft 387 kts 198°
2026-05-05 16:43 28.45347 -15.29629 19053 ft 382 kts 198°
2026-05-05 16:43 28.42808 -15.30528 18527 ft 382 kts 198°
2026-05-05 16:43 28.40258 -15.31436 18003 ft 386 kts 198°
2026-05-05 16:43 28.37696 -15.32333 17408 ft 380 kts 198°
2026-05-05 16:44 28.35193 -15.33213 16671 ft 373 kts 198°
2026-05-05 16:44 28.32768 -15.34059 15927 ft 365 kts 198°
2026-05-05 16:44 28.30354 -15.34901 15174 ft 359 kts 198°
2026-05-05 16:44 28.27980 -15.35732 14422 ft 354 kts 198°
2026-05-05 16:45 28.25634 -15.36544 13686 ft 350 kts 197°
2026-05-05 16:45 28.23330 -15.37341 13217 ft 341 kts 197°
2026-05-05 16:45 28.21086 -15.38127 12769 ft 339 kts 197°
2026-05-05 16:45 28.18829 -15.38925 12317 ft 339 kts 198°
2026-05-05 16:46 28.16573 -15.39723 11867 ft 339 kts 198°
2026-05-05 16:46 28.14320 -15.40532 11418 ft 338 kts 198°
2026-05-05 16:46 28.12092 -15.41331 11151 ft 331 kts 200°
2026-05-05 16:46 28.09839 -15.41887 11049 ft 334 kts 186°
2026-05-05 16:47 28.07552 -15.41539 11032 ft 341 kts 167°
2026-05-05 16:47 28.05381 -15.40403 11029 ft 348 kts 152°
2026-05-05 16:47 28.03434 -15.38741 11028 ft 353 kts 142°
2026-05-05 16:47 28.01704 -15.36823 11019 ft 338 kts 137°
2026-05-05 16:48 28.00188 -15.34924 11011 ft 313 kts 135°
2026-05-05 16:48 27.98792 -15.33135 10877 ft 293 kts 136°
2026-05-05 16:48 27.97465 -15.31483 10570 ft 280 kts 137°
2026-05-05 16:48 27.96133 -15.29885 9931 ft 280 kts 137°
2026-05-05 16:49 27.94758 -15.28284 9199 ft 284 kts 137°
2026-05-05 16:49 27.93369 -15.26696 8566 ft 283 kts 138°
2026-05-05 16:49 27.91911 -15.25237 7983 ft 277 kts 150°
2026-05-05 16:49 27.90132 -15.24599 7551 ft 262 kts 179°
2026-05-05 16:50 27.88421 -15.24997 7271 ft 247 kts 207°
2026-05-05 16:50 27.87112 -15.26133 7037 ft 236 kts 223°
2026-05-05 16:50 27.85945 -15.27432 6788 ft 234 kts 223°
2026-05-05 16:50 27.84674 -15.28577 6529 ft 233 kts 211°
2026-05-05 16:51 27.83231 -15.29407 6267 ft 233 kts 205°
2026-05-05 16:51 27.81714 -15.30152 5777 ft 243 kts 204°
2026-05-05 16:51 27.80156 -15.30929 5440 ft 245 kts 204°
2026-05-05 16:51 27.78602 -15.31715 5138 ft 244 kts 204°
2026-05-05 16:52 27.77071 -15.32495 4832 ft 237 kts 204°
2026-05-05 16:52 27.75617 -15.33243 4549 ft 228 kts 204°
2026-05-05 16:52 27.74174 -15.33996 4245 ft 227 kts 204°
2026-05-05 16:52 27.72743 -15.34752 3945 ft 226 kts 204°
2026-05-05 16:53 27.71322 -15.35513 3645 ft 225 kts 205°
2026-05-05 16:53 27.70091 -15.36594 3311 ft 227 kts 231°
2026-05-05 16:53 27.69580 -15.38240 3110 ft 222 kts 266°
2026-05-05 16:53 27.69952 -15.39864 3016 ft 211 kts 300°
2026-05-05 16:54 27.70817 -15.41139 3006 ft 202 kts 312°
2026-05-05 16:54 27.71764 -15.42308 2899 ft 201 kts 314°
2026-05-05 16:54 27.72717 -15.43456 2798 ft 200 kts 314°
2026-05-05 16:54 27.73780 -15.44466 2693 ft 199 kts 328°
2026-05-05 16:55 27.74989 -15.45243 2606 ft 200 kts 333°
2026-05-05 16:55 27.76260 -15.45823 2516 ft 199 kts 349°
2026-05-05 16:55 27.77623 -15.45752 2504 ft 197 kts 18°
2026-05-05 16:55 27.78869 -15.45116 2525 ft 196 kts 29°
2026-05-05 16:56 27.80069 -15.44444 2517 ft 189 kts 26°
2026-05-05 16:56 27.81306 -15.43894 2288 ft 190 kts 22°
2026-05-05 16:56 27.82538 -15.43381 2030 ft 187 kts 22°
2026-05-05 16:56 27.83693 -15.42871 1804 ft 169 kts 24°
2026-05-05 16:57 27.84740 -15.42404 1544 ft 156 kts 24°
2026-05-05 16:57 27.85720 -15.41973 1354 ft 147 kts 24°
2026-05-05 16:57 27.86663 -15.41553 1160 ft 144 kts 24°
2026-05-05 16:57 27.87579 -15.41147 978 ft 142 kts 24°
2026-05-05 16:58 27.88500 -15.40740 787 ft 141 kts 24°
2026-05-05 16:58 27.89407 -15.40328 609 ft 140 kts 24°
2026-05-05 16:58 27.90313 -15.39933 434 ft 140 kts 23°
2026-05-05 16:58 27.91219 -15.39534 265 ft 139 kts 23°
2026-05-05 16:59 27.92108 -15.39139 101 ft 138 kts 22°
2026-05-05 16:59 27.92918 -15.38780 88 ft 105 kts 22°
2026-05-05 16:59 27.93403 -15.38566 88 ft 52 kts 21°
2026-05-05 16:59 27.93658 -15.38453 88 ft 25 kts 21°
2026-05-05 17:00 27.93816 -15.38422 88 ft 22 kts 355°
2026-05-05 17:00 27.93934 -15.38441 88 ft 13 kts 350°
2026-05-05 17:00 27.93984 -15.38452 88 ft 4 kts 347°
2026-05-05 17:00 27.94009 -15.38462 88 ft 4 kts 332°
2026-05-05 17:01 27.94025 -15.38473 88 ft 2 kts 324°
2026-05-05 17:01 27.94038 -15.38489 88 ft 4 kts 310°
2026-05-05 17:01 27.94057 -15.38528 88 ft 6 kts 297°
2026-05-05 17:01 27.94063 -15.38541 88 ft 3 kts 296°
2026-05-05 17:02 27.94070 -15.38565 88 ft 5 kts 279°
2026-05-05 17:02 27.94065 -15.38600 88 ft 4 kts 243°
2026-05-05 17:02 27.94049 -15.38622 88 ft 3 kts 224°
2026-05-05 17:02 27.94033 -15.38637 88 ft 4 kts 212°
2026-05-05 17:03 27.94028 -15.38668 88 ft 5 kts 290°
2026-05-05 17:03 27.94041 -15.38705 88 ft 5 kts 291°
2026-05-05 17:03 27.94044 -15.38716 88 ft 0 kts 291°
2026-05-05 17:04 27.94045 -15.38716 88 ft 0 kts 291°